Location: Unspecified
(0.0000°N, 0.0000°E)
Time: 23:28:51
(UTC+00:00)

A-11 Canister half - Visible Passes

Search period start: 25 January 2021 00:00
Search period end: 04 February 2021 00:00
Orbit: 1517 x 1683 km, 47.2° (Epoch: 25 January)

Date Brightness Start Highest point End Pass type
(mag) Time Alt. Az. Time Alt. Az. Time Alt. Az.
25 Jan 10.2 03:32:28 24° NNE 03:35:35 28° NE 03:43:25 10° ESE visible
25 Jan 9.2 05:31:03 10° NW 05:40:19 61° SW 05:49:58 10° SSE visible
25 Jan 10.7 18:24:14 10° WSW 18:32:09 28° NW 18:39:54 10° N visible
26 Jan 10.3 03:11:23 25° NE 03:12:39 26° NE 03:20:07 10° E visible
26 Jan 9.1 05:09:38 16° NW 05:17:24 66° SW 05:27:07 10° SSE visible
27 Jan 10.5 02:50:18 23° NE 02:50:18 23° NE 02:56:46 10° E visible
27 Jan 9.0 04:48:33 26° NW 04:54:29 71° SW 05:04:13 10° SSE visible
28 Jan 10.7 02:29:13 19° ENE 02:29:13 19° ENE 02:33:23 10° E visible
28 Jan 8.9 04:27:27 39° NW 04:31:35 77° SW 04:41:19 10° SE visible
29 Jan 11.0 02:08:06 14° ENE 02:08:06 14° ENE 02:09:55 10° E visible
29 Jan 8.9 04:06:20 57° NW 04:08:40 84° SW 04:18:25 10° SE visible
30 Jan 8.8 03:45:11 81° NW 03:45:47 90° SE 03:55:30 10° SE visible
30 Jan 10.4 05:45:07 10° W 05:50:57 18° SW 05:56:56 10° S visible
31 Jan 9.0 03:24:00 73° ESE 03:24:00 73° ESE 03:32:33 10° SE visible
31 Jan 10.3 05:22:14 11° W 05:27:58 19° SW 05:34:26 10° S visible
01 Feb 9.5 03:02:47 51° SE 03:02:47 51° SE 03:09:35 10° SE visible
01 Feb 10.2 05:01:01 17° WSW 05:04:59 21° SW 05:11:53 10° S visible
02 Feb 10.0 02:41:30 36° SE 02:41:30 36° SE 02:46:37 10° SE visible
02 Feb 10.0 04:39:45 22° WSW 04:42:01 24° SW 04:49:18 10° S visible
03 Feb 10.5 02:20:12 25° SE 02:20:12 25° SE 02:23:38 10° SE visible
03 Feb 10.0 04:18:25 26° SW 04:19:04 26° SW 04:26:40 10° S visible
